Regional Weather Roundup
Issued by NWS Northern Indiana

Home | Current Version | Previous Version | Graphics & Text | Print | Product List | Glossary On
Versions: 1 2 3 4 5 6 7 8 9 10 11 12 13 14 15 16 17 18 19 20 21 22 23 24 25 26 27 28 29 30 31 32 33 34 35 36 37 38 39 40 41 42 43 44 45 46 47 48 49 50
000
ASUS43 KIWX 231900
RWRIWX

KIWX WEATHER ROUNDUP
NATIONAL WEATHER SERVICE NORTHERN INDIANA
200 PM EST FRI FEB 23 2018

NOTE: "FAIR" INDICATES FEW OR NO CLOUDS BELOW 12,000 FEET WITH NO
SIGNIFICANT WEATHER AND/OR OBSTRUCTIONS TO VISIBILITY.

* THESE STATIONS ARE NOT UNDER NWS QUALITY CONTROL. THEY ALSO MAY NOT
  REPORT WEATHER SUCH AS PRECIPITATION OR FOG.

INZ001>027-232000-
NORTHERN INDIANA

CITY           SKY/WX    TMP DP  RH WIND       PRES   REMARKS
GARY*            N/A     45  39  81 W17G30    30.18
MICHIGAN CITY* CLOUDY    43  41  93 W8        30.18R
SOUTH BEND     CLOUDY    45  43  93 W12       30.17R
GOSHEN         CLOUDY    46  44  93 W14       30.15R FOG
MONTICELLO*    CLOUDY    46  44  94 W15       30.20S
WARSAW*        CLOUDY    45  45 100 N13G18    30.16R
AUBURN*        CLOUDY    46  46 100 W10       30.15S
FORT WAYNE     CLOUDY    52  49  89 W16       30.15S

$$
INZ028>050-232000-
CENTRAL INDIANA

CITY           SKY/WX    TMP DP  RH WIND       PRES   REMARKS
LAFAYETTE      CLOUDY    47  44  90 W13       30.22R
KOKOMO*        CLOUDY    50  47  89 W21       30.20S
MUNCIE*        CLOUDY    58  52  80 W18G24    30.19R
INDIANAPOLIS   CLOUDY    53  50  89 SW15      30.22S

$$
MIZ043>046-050>051-056>058-064>065-071>073-077>080-232000-
SOUTHWEST LOWER MICHIGAN

CITY           SKY/WX    TMP DP  RH WIND       PRES   REMARKS
BATTLE CREEK   CLOUDY    45  43  93 W14G23    30.11R FOG
BENTON HARBOR  CLOUDY    41  38  89 W14       30.17R
COLDWATER*     CLOUDY    46  46 100 W14G24    30.12S
HILLSDALE*     CLOUDY    45  43  93 W13G24    30.09S
HOLLAND        CLOUDY    41  39  93 W12G23    30.14R
GRAND RAPIDS   CLOUDY    43  41  93 W17G30    30.10R FOG
KALAMAZOO      CLOUDY    45  42  89 W16       30.14R
STURGIS*       CLOUDY    46  45  95 W12G18    30.13S
THREE RIVERS*  CLOUDY    46  44  94 W13       30.14S FOG

$$
OHZ001>008-015>018-024>025-232000-
NORTHWEST OHIO

CITY           SKY/WX    TMP DP  RH WIND       PRES   REMARKS
DEFIANCE       CLOUDY    51  48  89 SW10G17   30.13R
FINDLAY        CLOUDY    61  53  75 W22G32    30.11F
TOLEDO EXPRESS CLOUDY    51  50  96 W17G26    30.11S
TOLEDO METCALF PTSUNNY   53  49  86 W15       30.11F
LIMA           PTSUNNY   59  55  87 SW21G28   30.13F

$$
AND FOR LAKE MICHIGAN COASTAL AND OPEN LAKE BUOY OBSERVATIONS

STATION/POSITION TEMP    WIND        PRES    VSBY  WAVE
                 AIR SEA DIR/SP/G                  HT/PER
                 (F)     (DEG/KT/KT) (MB)    (MI)  (FT/S)
CALUMET HARBOR    41     240/ 10/ 17 1021.2R
MICHIGAN CITY     38     240/ 19/ 21   N/A
BURNS HARBOR      40     250/ 15/ 17 1022.4R
SAINT JOSEPH      37     210/ 10/ 12 1021.3

$$
&&




USA.gov is the U.S. government's official web portal to all federal, state and local government web resources and services.